Regional Weather Roundup
Issued by NWS

Home | Current Version | Previous Version | Text Only | Print | Product List | Glossary Off
Versions: 1 2 3 4 5 6 7 8 9 10 11 12 13 14 15 16 17 18 19 20 21 22 23 24 25 26 27 28 29 30 31 32 33 34 35 36 37 38 39 40 41 42 43 44 45 46 47 48 49 50

000
ASUS43 KFSD 031102
RWRSD

WEATHER ROUNDUP FOR SOUTH DAKOTA
NATIONAL WEATHER SERVICE SIOUX FALLS SD
500 AM CST TUE MAR 03 2015

NOTE: "FAIR" INDICATES FEW OR NO CLOUDS BELOW 12,000 FEET WITH NO
SIGNIFICANT WEATHER AND/OR OBSTRUCTIONS TO VISIBILITY.


SDZ001>005-009-010-012>017-031200-
NORTHWEST AND NORTH CENTRAL SOUTH DAKOTA

CITY           SKY/WX    TMP DP  RH WIND       PRES   REMARKS
FAITH            N/A     15   9  76 N26G40    29.85R WCI  -4
MOBRIDGE       LGT SNOW  18  11  74 N25G35    29.80R WCI   0
$$

SDZ012>016-024>037-041>051-057-063-072>074-031200-
SOUTHWEST AND SOUTH CENTRAL SOUTH DAKOTA

CITY           SKY/WX    TMP DP  RH WIND       PRES   REMARKS
RAPID CTY ARPT FOG       16  12  84 N38G47    29.85R VSB 1/2 WCI  -6
PIERRE         FOG       19  15  84 N32G44    29.75R VSB 1   WCI  -1
CUSTER         LGT SNOW  12   5  73 N13G24    29.67R WCI  -3
ELLSWORTH AFB  SNOW      16  12  86 N25G43    29.85R VSB 1/2 WCI  -3
PHILIP         LGT SNOW  19  14  81 N29G44    29.82R WCI   0
PINE RIDGE     LGT SNOW  20  16  84 N18G28    29.79R VSB 3/4 WCI   5
SPEARFISH      LGT SNOW  10   9  92 NW22G30   29.92R VSB 1   WCI  -9
WINNER         LGT SNOW  29  25  85 NW12      29.65R VSB 3/4 WCI  19
$$

SDZ004>011-016>023-039-040-031200-
NORTHEAST SOUTH DAKOTA

CITY           SKY/WX    TMP DP  RH WIND       PRES   REMARKS
ABERDEEN       LGT SNOW  21  16  81 N26       29.74R VSB 1   WCI   4
WATERTOWN      LGT SNOW  24  21  88 S6        29.64F VSB 1   WCI  17
$$

SDZ017-020-022-023-036>040-048>070-031200-
SOUTHEAST SOUTH DAKOTA

CITY           SKY/WX    TMP DP  RH WIND       PRES   REMARKS
SIOUX FALLS    CLOUDY    25  19  78 S7        29.66F WCI  17
HURON          SNOW      25  24  96 SW3       29.68R VSB 1/2
MITCHELL         N/A     28  20  71 S3        29.66F HAZE
YANKTON        CLOUDY    28  18  64 S3        29.68R
$$

ABBREVIATIONS USED IN REMARKS
   TC - TEMPERATURE IN CELSIUS
  WCI - WIND CHILL INDEX
   HX - HEAT INDEX
  VSB - VISIBILITY



USA.gov is the U.S. government's official web portal to all federal, state and local government web resources and services.